GEFSCGP_prec_meanprecacc_078.txt.gz
Total_Precipitation_Accumulation
0.00 0.00 0.00 0.00 0.00 0.00 0.00 0.00 0.00 0.00 0.00 0.00 0.00 0.00 0.01 0.03 0.05 0.05 0.09 0.20 0.50 0.95 1.21 1.34 1.51 1.61 1.79 1.97 2.18 2.38 2.58 2.70 2.59 2.60 2.66 2.63 2.36 2.25 2.02 1.81 1.60 1.52 1.49 1.61
0.00 0.00 0.00 0.00 0.00 0.00 0.00 0.00 0.00 0.00 0.00 0.00 0.00 0.00 0.02 0.03 0.04 0.06 0.10 0.23 0.41 0.72 1.09 1.23 1.30 1.45 1.59 1.82 2.25 2.63 2.58 2.50 2.43 2.62 2.87 3.04 3.02 2.65 2.13 1.90 1.76 1.57 1.50 1.58
0.00 0.00 0.00 0.00 0.00 0.00 0.00 0.00 0.00 0.00 0.00 0.00 0.00 0.01 0.02 0.04 0.08 0.13 0.21 0.33 0.51 0.70 0.85 0.99 1.02 1.09 1.24 1.52 1.85 1.97 1.76 1.78 1.75 1.84 2.08 2.23 2.49 2.39 2.11 1.85 1.71 1.62 1.57 1.53
0.00 0.00 0.00 0.00 0.00 0.00 0.00 0.00 0.00 0.00 0.00 0.00 0.00 0.01 0.03 0.05 0.10 0.22 0.34 0.47 0.70 0.84 0.87 0.92 0.98 1.06 1.08 1.05 1.03 1.03 1.10 1.18 1.27 1.39 1.63 1.91 2.18 2.15 2.06 1.99 1.75 1.56 1.41 1.34
0.00 0.00 0.00 0.00 0.00 0.00 0.00 0.00 0.00 0.00 0.00 0.00 0.00 0.01 0.03 0.06 0.13 0.25 0.38 0.56 0.79 0.80 0.77 0.80 0.86 0.91 0.90 0.88 0.90 0.90 1.00 1.14 1.25 1.36 1.50 1.69 2.04 2.02 1.85 1.72 1.56 1.48 1.39 1.31
0.01 0.01 0.01 0.00 0.00 0.00 0.00 0.00 0.00 0.00 0.01 0.02 0.04 0.04 0.06 0.11 0.22 0.33 0.41 0.58 0.66 0.64 0.68 0.74 0.74 0.75 0.75 0.76 0.86 0.91 0.93 1.01 1.07 1.13 1.21 1.27 1.43 1.50 1.41 1.35 1.30 1.23 1.14 1.10
0.02 0.02 0.02 0.01 0.01 0.01 0.01 0.02 0.06 0.07 0.11 0.14 0.15 0.14 0.19 0.26 0.34 0.47 0.55 0.64 0.68 0.66 0.60 0.62 0.67 0.69 0.72 0.73 0.76 0.81 0.84 0.87 0.84 0.81 0.78 0.79 0.89 1.02 1.07 1.07 1.08 1.06 0.95 0.89
0.04 0.06 0.06 0.03 0.03 0.04 0.06 0.09 0.22 0.20 0.12 0.09 0.11 0.17 0.33 0.41 0.53 0.56 0.51 0.50 0.49 0.47 0.44 0.44 0.48 0.53 0.57 0.61 0.64 0.65 0.67 0.69 0.71 0.70 0.71 0.67 0.71 0.81 0.90 0.98 0.95 0.92 0.82 0.72
0.02 0.02 0.03 0.03 0.03 0.06 0.15 0.18 0.17 0.30 0.27 0.20 0.12 0.19 0.36 0.44 0.57 0.55 0.53 0.51 0.48 0.44 0.40 0.37 0.38 0.41 0.40 0.41 0.43 0.47 0.52 0.59 0.64 0.66 0.66 0.60 0.64 0.77 0.84 0.89 0.92 0.96 0.95 0.86
0.02 0.01 0.01 0.01 0.04 0.08 0.10 0.12 0.18 0.29 0.31 0.26 0.16 0.29 0.55 0.77 0.79 0.70 0.71 0.67 0.57 0.44 0.36 0.31 0.27 0.25 0.25 0.28 0.34 0.45 0.57 0.62 0.56 0.53 0.50 0.47 0.55 0.73 0.77 0.73 0.75 0.86 0.92 0.92
0.01 0.01 0.01 0.04 0.05 0.07 0.11 0.14 0.21 0.27 0.25 0.30 0.32 0.40 0.43 0.63 0.75 0.75 0.70 0.63 0.51 0.40 0.33 0.28 0.23 0.19 0.19 0.22 0.28 0.39 0.47 0.53 0.51 0.45 0.41 0.39 0.42 0.49 0.56 0.60 0.62 0.69 0.76 0.82
0.01 0.01 0.02 0.04 0.04 0.06 0.09 0.13 0.22 0.35 0.36 0.40 0.45 0.49 0.33 0.39 0.47 0.46 0.42 0.36 0.31 0.27 0.23 0.20 0.19 0.19 0.20 0.23 0.28 0.33 0.36 0.38 0.40 0.39 0.37 0.38 0.38 0.37 0.36 0.40 0.45 0.49 0.54 0.59
0.01 0.04 0.04 0.04 0.11 0.13 0.14 0.12 0.16 0.21 0.28 0.32 0.41 0.46 0.34 0.36 0.40 0.44 0.45 0.41 0.32 0.25 0.22 0.21 0.20 0.20 0.22 0.27 0.31 0.34 0.39 0.39 0.41 0.39 0.38 0.41 0.40 0.37 0.32 0.31 0.33 0.35 0.34 0.33
0.01 0.02 0.04 0.05 0.05 0.07 0.11 0.14 0.17 0.22 0.31 0.30 0.29 0.37 0.44 0.47 0.48 0.44 0.42 0.40 0.35 0.25 0.18 0.19 0.21 0.22 0.24 0.27 0.28 0.28 0.33 0.39 0.44 0.48 0.55 0.55 0.49 0.44 0.37 0.30 0.28 0.26 0.25 0.24
0.00 0.00 0.01 0.01 0.02 0.06 0.09 0.10 0.15 0.18 0.22 0.34 0.27 0.28 0.37 0.40 0.43 0.41 0.34 0.29 0.25 0.21 0.19 0.19 0.22 0.25 0.25 0.25 0.26 0.26 0.29 0.33 0.37 0.42 0.52 0.57 0.52 0.46 0.39 0.31 0.25 0.24 0.22 0.20
0.01 0.01 0.01 0.03 0.07 0.11 0.11 0.12 0.12 0.12 0.12 0.17 0.20 0.25 0.22 0.22 0.27 0.30 0.28 0.26 0.24 0.23 0.20 0.17 0.17 0.17 0.20 0.21 0.20 0.21 0.23 0.24 0.27 0.31 0.37 0.44 0.45 0.41 0.35 0.29 0.23 0.20 0.18 0.18
0.02 0.02 0.02 0.03 0.06 0.11 0.17 0.14 0.11 0.09 0.07 0.13 0.26 0.30 0.21 0.22 0.26 0.27 0.22 0.19 0.18 0.15 0.12 0.10 0.12 0.12 0.11 0.10 0.11 0.16 0.19 0.21 0.27 0.30 0.32 0.38 0.44 0.43 0.34 0.24 0.22 0.21 0.21 0.22
0.04 0.03 0.04 0.07 0.09 0.18 0.16 0.04 0.03 0.06 0.05 0.05 0.14 0.16 0.15 0.16 0.15 0.12 0.10 0.09 0.08 0.06 0.05 0.04 0.04 0.05 0.04 0.04 0.08 0.14 0.18 0.25 0.30 0.33 0.37 0.41 0.43 0.43 0.39 0.31 0.29 0.31 0.32 0.32
0.02 0.02 0.02 0.05 0.08 0.11 0.05 0.03 0.04 0.07 0.08 0.03 0.06 0.08 0.07 0.05 0.07 0.08 0.04 0.02 0.01 0.01 0.01 0.01 0.02 0.03 0.03 0.06 0.12 0.19 0.27 0.35 0.38 0.39 0.40 0.42 0.47 0.53 0.53 0.47 0.40 0.38 0.40 0.37
0.01 0.01 0.01 0.02 0.05 0.10 0.06 0.03 0.04 0.06 0.14 0.07 0.04 0.04 0.03 0.03 0.10 0.13 0.04 0.00 0.00 0.00 0.01 0.01 0.03 0.05 0.08 0.11 0.15 0.23 0.33 0.41 0.45 0.44 0.41 0.43 0.48 0.55 0.61 0.61 0.53 0.48 0.48 0.42
0.01 0.01 0.01 0.02 0.04 0.04 0.02 0.03 0.04 0.12 0.19 0.03 0.01 0.01 0.01 0.03 0.07 0.06 0.02 0.00 0.00 0.01 0.01 0.02 0.06 0.08 0.10 0.11 0.17 0.27 0.37 0.43 0.42 0.41 0.44 0.50 0.55 0.61 0.65 0.70 0.68 0.64 0.58 0.52
0.01 0.01 0.01 0.03 0.07 0.08 0.01 0.00 0.02 0.04 0.03 0.01 0.01 0.01 0.01 0.01 0.01 0.00 0.00 0.01 0.01 0.01 0.02 0.04 0.09 0.13 0.12 0.13 0.20 0.30 0.36 0.38 0.42 0.45 0.51 0.56 0.63 0.61 0.66 0.84 0.86 0.88 0.82 0.68
0.00 0.01 0.01 0.02 0.04 0.02 0.01 0.00 0.01 0.01 0.01 0.01 0.01 0.01 0.01 0.01 0.01 0.01 0.01 0.01 0.01 0.01 0.03 0.06 0.11 0.14 0.18 0.23 0.30 0.37 0.36 0.39 0.48 0.55 0.61 0.60 0.60 0.66 0.75 0.83 0.86 0.86 0.82 0.75
0.00 0.00 0.01 0.03 0.02 0.01 0.01 0.01 0.01 0.00 0.00 0.00 0.00 0.01 0.01 0.01 0.01 0.01 0.01 0.02 0.02 0.03 0.06 0.09 0.16 0.24 0.32 0.39 0.42 0.42 0.43 0.50 0.60 0.67 0.72 0.73 0.72 0.69 0.71 0.81 0.84 0.81 0.74 0.72
0.00 0.00 0.02 0.04 0.02 0.01 0.01 0.01 0.00 0.00 0.00 0.00 0.00 0.01 0.01 0.02 0.02 0.02 0.02 0.03 0.04 0.05 0.08 0.12 0.21 0.31 0.35 0.43 0.52 0.54 0.61 0.71 0.78 0.76 0.73 0.75 0.79 0.84 0.86 0.83 0.85 0.84 0.80 0.70
0.01 0.02 0.03 0.04 0.04 0.04 0.03 0.01 0.00 0.00 0.00 0.01 0.01 0.01 0.02 0.03 0.03 0.02 0.02 0.03 0.04 0.07 0.11 0.16 0.24 0.32 0.38 0.47 0.55 0.60 0.69 0.81 0.91 0.90 0.81 0.80 0.82 0.84 0.87 0.86 0.78 0.68 0.62 0.53

GEFSCGP_prec_meanprecacc_084.txt.gz
Total_Precipitation_Accumulation
0.00 0.00 0.00 0.00 0.00 0.00 0.00 0.00 0.00 0.00 0.00 0.00 0.00 0.01 0.03 0.03 0.05 0.06 0.10 0.21 0.50 0.95 1.21 1.35 1.52 1.63 1.81 2.01 2.24 2.45 2.67 2.79 2.67 2.71 2.78 2.75 2.48 2.37 2.15 1.92 1.71 1.63 1.59 1.72
0.00 0.01 0.00 0.00 0.00 0.00 0.00 0.00 0.00 0.01 0.00 0.00 0.00 0.02 0.05 0.05 0.05 0.06 0.10 0.23 0.42 0.72 1.09 1.23 1.31 1.47 1.61 1.84 2.28 2.67 2.63 2.56 2.49 2.69 2.95 3.13 3.12 2.76 2.24 2.01 1.89 1.66 1.58 1.68
0.01 0.02 0.01 0.00 0.00 0.00 0.00 0.00 0.01 0.01 0.00 0.00 0.01 0.06 0.10 0.12 0.13 0.15 0.22 0.33 0.51 0.70 0.86 0.99 1.02 1.10 1.26 1.54 1.87 1.99 1.78 1.81 1.79 1.88 2.13 2.28 2.55 2.46 2.18 1.92 1.80 1.68 1.62 1.61
0.01 0.01 0.00 0.00 0.00 0.00 0.01 0.01 0.01 0.00 0.00 0.01 0.02 0.10 0.21 0.30 0.34 0.35 0.39 0.48 0.70 0.85 0.87 0.92 0.98 1.07 1.10 1.06 1.04 1.06 1.12 1.22 1.30 1.43 1.69 1.96 2.23 2.21 2.12 2.05 1.81 1.61 1.46 1.40
0.01 0.00 0.00 0.00 0.01 0.01 0.01 0.01 0.00 0.00 0.01 0.01 0.03 0.08 0.27 0.46 0.61 0.50 0.44 0.57 0.79 0.80 0.77 0.80 0.87 0.92 0.90 0.89 0.91 0.91 1.01 1.15 1.27 1.38 1.53 1.73 2.08 2.06 1.88 1.75 1.60 1.52 1.43 1.35
0.02 0.01 0.01 0.00 0.01 0.01 0.00 0.00 0.00 0.01 0.05 0.12 0.15 0.15 0.31 0.47 0.46 0.42 0.43 0.59 0.66 0.64 0.68 0.74 0.74 0.75 0.75 0.77 0.86 0.92 0.94 1.02 1.08 1.15 1.25 1.31 1.47 1.53 1.44 1.37 1.33 1.26 1.18 1.16
0.06 0.06 0.04 0.02 0.01 0.02 0.01 0.02 0.13 0.26 0.34 0.36 0.27 0.27 0.43 0.39 0.39 0.50 0.56 0.64 0.69 0.66 0.60 0.62 0.67 0.69 0.72 0.73 0.76 0.81 0.84 0.88 0.86 0.83 0.81 0.82 0.92 1.05 1.09 1.09 1.09 1.07 0.97 0.91
0.13 0.16 0.09 0.04 0.03 0.05 0.06 0.10 0.28 0.31 0.25 0.23 0.22 0.38 0.54 0.50 0.54 0.56 0.51 0.50 0.49 0.47 0.44 0.44 0.48 0.53 0.57 0.61 0.64 0.65 0.67 0.71 0.73 0.73 0.74 0.70 0.74 0.83 0.91 1.00 0.96 0.93 0.83 0.73
0.06 0.07 0.04 0.03 0.03 0.06 0.15 0.18 0.18 0.30 0.28 0.24 0.25 0.43 0.54 0.52 0.58 0.55 0.53 0.51 0.48 0.44 0.40 0.37 0.38 0.41 0.40 0.41 0.43 0.47 0.52 0.61 0.65 0.68 0.69 0.63 0.66 0.78 0.85 0.91 0.93 0.97 0.96 0.87
0.02 0.01 0.02 0.02 0.04 0.08 0.11 0.12 0.18 0.29 0.31 0.27 0.22 0.49 0.80 0.85 0.81 0.70 0.71 0.67 0.57 0.44 0.36 0.31 0.27 0.25 0.25 0.28 0.34 0.45 0.58 0.63 0.57 0.54 0.52 0.48 0.57 0.75 0.79 0.75 0.77 0.88 0.94 0.93
0.01 0.01 0.03 0.05 0.05 0.07 0.11 0.14 0.21 0.27 0.26 0.31 0.34 0.49 0.48 0.64 0.75 0.75 0.70 0.63 0.52 0.40 0.33 0.28 0.23 0.19 0.19 0.22 0.28 0.39 0.47 0.53 0.51 0.46 0.42 0.39 0.43 0.50 0.58 0.62 0.64 0.71 0.78 0.83
0.01 0.01 0.04 0.07 0.06 0.06 0.09 0.13 0.22 0.35 0.36 0.40 0.46 0.52 0.33 0.39 0.47 0.46 0.42 0.36 0.31 0.27 0.23 0.20 0.19 0.19 0.20 0.23 0.28 0.33 0.36 0.38 0.41 0.39 0.38 0.38 0.39 0.38 0.37 0.41 0.46 0.51 0.56 0.61
0.01 0.04 0.08 0.20 0.25 0.15 0.15 0.12 0.16 0.21 0.28 0.32 0.41 0.47 0.34 0.36 0.40 0.44 0.45 0.41 0.32 0.25 0.22 0.21 0.20 0.20 0.22 0.27 0.31 0.34 0.39 0.39 0.41 0.39 0.38 0.41 0.40 0.38 0.33 0.32 0.34 0.37 0.37 0.37
0.01 0.02 0.04 0.09 0.09 0.07 0.11 0.14 0.17 0.22 0.31 0.30 0.29 0.37 0.44 0.47 0.48 0.44 0.42 0.40 0.35 0.25 0.18 0.19 0.21 0.22 0.24 0.27 0.28 0.28 0.33 0.39 0.44 0.48 0.55 0.55 0.50 0.45 0.38 0.31 0.30 0.29 0.28 0.29
0.00 0.00 0.01 0.01 0.02 0.06 0.09 0.10 0.15 0.18 0.22 0.34 0.27 0.28 0.37 0.40 0.43 0.41 0.34 0.29 0.25 0.21 0.19 0.19 0.22 0.25 0.25 0.25 0.26 0.26 0.29 0.33 0.37 0.43 0.53 0.58 0.53 0.47 0.42 0.34 0.28 0.27 0.26 0.24
0.01 0.01 0.01 0.03 0.08 0.11 0.11 0.12 0.12 0.12 0.12 0.17 0.20 0.25 0.22 0.22 0.27 0.30 0.28 0.26 0.24 0.23 0.20 0.17 0.17 0.17 0.20 0.21 0.20 0.21 0.23 0.25 0.27 0.31 0.38 0.45 0.47 0.44 0.39 0.32 0.27 0.25 0.23 0.24
0.02 0.02 0.02 0.03 0.07 0.11 0.18 0.14 0.11 0.09 0.07 0.13 0.26 0.30 0.21 0.22 0.26 0.27 0.22 0.19 0.18 0.15 0.12 0.10 0.12 0.12 0.11 0.10 0.12 0.17 0.19 0.21 0.28 0.31 0.33 0.40 0.47 0.46 0.37 0.27 0.25 0.26 0.27 0.30
0.04 0.03 0.04 0.07 0.09 0.19 0.17 0.04 0.03 0.06 0.05 0.05 0.14 0.16 0.15 0.16 0.15 0.12 0.10 0.09 0.08 0.06 0.05 0.04 0.04 0.05 0.05 0.05 0.09 0.14 0.18 0.25 0.31 0.35 0.39 0.44 0.47 0.47 0.43 0.37 0.35 0.38 0.41 0.42
0.02 0.02 0.02 0.05 0.08 0.11 0.05 0.03 0.04 0.07 0.08 0.03 0.06 0.08 0.07 0.05 0.07 0.08 0.04 0.02 0.01 0.01 0.01 0.01 0.02 0.03 0.04 0.07 0.12 0.19 0.28 0.36 0.39 0.41 0.43 0.46 0.52 0.58 0.59 0.53 0.48 0.48 0.50 0.47
0.01 0.01 0.01 0.02 0.05 0.10 0.06 0.04 0.04 0.06 0.14 0.07 0.04 0.04 0.03 0.03 0.10 0.13 0.04 0.00 0.00 0.00 0.01 0.01 0.03 0.05 0.08 0.12 0.16 0.24 0.35 0.43 0.47 0.47 0.45 0.47 0.53 0.60 0.67 0.68 0.61 0.57 0.58 0.52
0.01 0.01 0.01 0.02 0.04 0.04 0.02 0.03 0.04 0.12 0.19 0.03 0.01 0.01 0.01 0.03 0.07 0.06 0.02 0.00 0.00 0.01 0.01 0.02 0.06 0.09 0.11 0.12 0.18 0.28 0.39 0.46 0.45 0.44 0.47 0.54 0.60 0.66 0.71 0.77 0.77 0.73 0.67 0.62
0.01 0.01 0.01 0.03 0.07 0.08 0.01 0.00 0.02 0.04 0.03 0.01 0.01 0.01 0.01 0.01 0.01 0.00 0.00 0.01 0.01 0.01 0.02 0.04 0.09 0.13 0.13 0.14 0.22 0.32 0.38 0.41 0.45 0.48 0.54 0.59 0.67 0.65 0.70 0.91 0.95 0.97 0.92 0.78
0.00 0.01 0.01 0.02 0.04 0.02 0.01 0.00 0.01 0.01 0.01 0.01 0.01 0.01 0.01 0.01 0.01 0.01 0.01 0.01 0.01 0.01 0.03 0.06 0.11 0.14 0.18 0.25 0.32 0.39 0.38 0.41 0.50 0.58 0.64 0.63 0.64 0.72 0.82 0.92 0.95 0.95 0.92 0.86
0.00 0.00 0.01 0.03 0.02 0.01 0.01 0.01 0.01 0.00 0.00 0.00 0.00 0.01 0.01 0.01 0.01 0.01 0.01 0.02 0.02 0.03 0.06 0.10 0.16 0.25 0.33 0.40 0.44 0.44 0.44 0.52 0.63 0.71 0.76 0.77 0.77 0.75 0.79 0.92 0.94 0.91 0.85 0.83
0.00 0.00 0.02 0.04 0.02 0.01 0.01 0.01 0.00 0.00 0.00 0.00 0.00 0.01 0.01 0.02 0.02 0.02 0.02 0.03 0.04 0.05 0.08 0.13 0.22 0.32 0.36 0.43 0.53 0.55 0.62 0.74 0.82 0.80 0.77 0.79 0.83 0.91 0.93 0.92 0.93 0.91 0.88 0.77
0.01 0.02 0.03 0.04 0.04 0.04 0.03 0.01 0.00 0.00 0.00 0.01 0.01 0.01 0.02 0.03 0.03 0.02 0.02 0.03 0.04 0.07 0.11 0.17 0.25 0.33 0.38 0.48 0.56 0.61 0.71 0.84 0.95 0.94 0.85 0.85 0.87 0.90 0.94 0.94 0.85 0.73 0.65 0.55

GEFSCGP_prec_meanprecacc_090.txt.gz
Total_Precipitation_Accumulation
0.00 0.00 0.00 0.00 0.00 0.00 0.00 0.00 0.01 0.02 0.01 0.01 0.03 0.09 0.21 0.27 0.27 0.25 0.24 0.29 0.56 0.99 1.25 1.39 1.56 1.67 1.86 2.08 2.32 2.56 2.79 2.93 2.80 2.82 2.87 2.83 2.54 2.43 2.21 1.99 1.77 1.69 1.66 1.80
0.00 0.01 0.00 0.00 0.00 0.01 0.01 0.01 0.01 0.02 0.01 0.02 0.04 0.12 0.24 0.28 0.31 0.27 0.25 0.35 0.50 0.77 1.12 1.25 1.33 1.49 1.65 1.88 2.32 2.73 2.69 2.61 2.54 2.75 3.03 3.21 3.18 2.80 2.26 2.04 1.92 1.70 1.63 1.74
0.01 0.02 0.01 0.00 0.00 0.01 0.01 0.01 0.03 0.02 0.01 0.03 0.06 0.23 0.34 0.32 0.39 0.41 0.40 0.47 0.59 0.74 0.87 1.00 1.03 1.12 1.28 1.55 1.88 2.01 1.81 1.85 1.84 1.94 2.20 2.39 2.64 2.50 2.20 1.94 1.81 1.71 1.64 1.63
0.01 0.01 0.00 0.00 0.01 0.01 0.02 0.02 0.01 0.01 0.01 0.04 0.08 0.25 0.44 0.62 0.71 0.59 0.55 0.58 0.78 0.89 0.89 0.93 0.99 1.08 1.10 1.07 1.05 1.06 1.13 1.23 1.34 1.48 1.72 1.99 2.26 2.23 2.14 2.07 1.82 1.63 1.48 1.41
0.02 0.01 0.01 0.02 0.02 0.02 0.03 0.02 0.01 0.01 0.02 0.04 0.10 0.23 0.52 0.82 0.88 0.68 0.63 0.69 0.87 0.84 0.78 0.81 0.87 0.92 0.91 0.90 0.92 0.92 1.02 1.17 1.29 1.40 1.55 1.74 2.09 2.08 1.90 1.76 1.61 1.52 1.44 1.36
0.03 0.02 0.02 0.02 0.02 0.02 0.02 0.02 0.02 0.03 0.06 0.16 0.20 0.27 0.56 0.82 0.72 0.68 0.66 0.67 0.71 0.67 0.69 0.74 0.75 0.76 0.76 0.77 0.86 0.92 0.94 1.03 1.11 1.17 1.27 1.32 1.48 1.54 1.45 1.38 1.33 1.26 1.18 1.16
0.10 0.08 0.05 0.03 0.03 0.03 0.03 0.05 0.16 0.31 0.40 0.46 0.35 0.46 0.89 0.81 0.68 0.65 0.66 0.69 0.71 0.68 0.61 0.63 0.68 0.69 0.73 0.73 0.76 0.82 0.86 0.90 0.88 0.85 0.82 0.83 0.93 1.06 1.10 1.10 1.10 1.08 0.97 0.91
0.19 0.20 0.12 0.05 0.04 0.06 0.08 0.13 0.33 0.38 0.34 0.36 0.36 0.70 1.04 0.71 0.65 0.62 0.55 0.53 0.51 0.48 0.45 0.45 0.48 0.53 0.58 0.62 0.64 0.66 0.69 0.72 0.74 0.74 0.75 0.71 0.74 0.84 0.92 1.00 0.97 0.94 0.84 0.74
0.11 0.12 0.06 0.04 0.04 0.07 0.16 0.21 0.21 0.34 0.34 0.37 0.46 0.72 0.80 0.65 0.64 0.58 0.56 0.53 0.49 0.44 0.40 0.37 0.38 0.41 0.40 0.41 0.43 0.47 0.53 0.61 0.66 0.69 0.70 0.63 0.66 0.79 0.85 0.91 0.94 0.97 0.96 0.88
0.04 0.05 0.06 0.04 0.05 0.10 0.12 0.13 0.20 0.31 0.34 0.35 0.37 0.65 0.92 0.92 0.84 0.73 0.78 0.69 0.57 0.45 0.36 0.31 0.27 0.26 0.25 0.28 0.34 0.45 0.58 0.63 0.58 0.55 0.52 0.49 0.57 0.75 0.80 0.76 0.77 0.89 0.94 0.94
0.02 0.02 0.05 0.08 0.07 0.09 0.12 0.14 0.21 0.27 0.26 0.32 0.39 0.55 0.50 0.65 0.76 0.77 0.71 0.64 0.52 0.40 0.33 0.29 0.23 0.19 0.19 0.22 0.28 0.39 0.47 0.53 0.52 0.46 0.42 0.39 0.43 0.50 0.58 0.63 0.65 0.72 0.79 0.85
0.01 0.03 0.06 0.10 0.08 0.06 0.09 0.13 0.22 0.35 0.36 0.40 0.47 0.54 0.33 0.40 0.47 0.47 0.42 0.36 0.31 0.27 0.23 0.20 0.19 0.19 0.20 0.23 0.28 0.33 0.36 0.38 0.41 0.39 0.38 0.39 0.39 0.38 0.37 0.41 0.47 0.51 0.57 0.62
0.01 0.05 0.10 0.24 0.28 0.16 0.15 0.12 0.16 0.21 0.28 0.32 0.42 0.48 0.35 0.37 0.40 0.44 0.45 0.41 0.32 0.25 0.22 0.21 0.20 0.20 0.22 0.27 0.31 0.34 0.39 0.39 0.41 0.39 0.38 0.41 0.40 0.38 0.33 0.32 0.35 0.37 0.38 0.38
0.02 0.03 0.06 0.12 0.12 0.08 0.12 0.14 0.17 0.22 0.31 0.30 0.29 0.37 0.45 0.48 0.48 0.44 0.42 0.40 0.35 0.25 0.18 0.19 0.21 0.22 0.24 0.27 0.28 0.28 0.33 0.39 0.44 0.48 0.55 0.55 0.50 0.45 0.38 0.32 0.30 0.29 0.29 0.29
0.01 0.01 0.01 0.03 0.04 0.07 0.10 0.11 0.15 0.18 0.22 0.34 0.27 0.28 0.37 0.40 0.43 0.41 0.34 0.29 0.25 0.21 0.19 0.19 0.22 0.25 0.25 0.25 0.26 0.26 0.29 0.33 0.37 0.43 0.53 0.58 0.53 0.47 0.42 0.34 0.28 0.27 0.27 0.24
0.01 0.01 0.01 0.04 0.09 0.12 0.13 0.13 0.13 0.12 0.12 0.17 0.20 0.25 0.22 0.22 0.27 0.30 0.28 0.26 0.24 0.23 0.20 0.17 0.17 0.17 0.20 0.21 0.20 0.21 0.23 0.25 0.27 0.31 0.38 0.45 0.47 0.44 0.39 0.32 0.27 0.25 0.23 0.24
0.02 0.02 0.02 0.04 0.09 0.13 0.21 0.17 0.12 0.09 0.07 0.13 0.26 0.30 0.21 0.22 0.26 0.27 0.22 0.19 0.18 0.15 0.12 0.10 0.12 0.12 0.11 0.10 0.12 0.17 0.19 0.21 0.28 0.31 0.33 0.40 0.47 0.46 0.37 0.27 0.26 0.26 0.28 0.30
0.04 0.03 0.04 0.07 0.10 0.21 0.18 0.06 0.05 0.06 0.05 0.05 0.14 0.16 0.15 0.16 0.15 0.12 0.10 0.09 0.08 0.06 0.05 0.04 0.04 0.05 0.05 0.05 0.09 0.14 0.18 0.25 0.31 0.35 0.39 0.44 0.47 0.47 0.43 0.37 0.36 0.39 0.42 0.42
0.03 0.02 0.02 0.05 0.09 0.12 0.07 0.04 0.06 0.07 0.08 0.03 0.06 0.08 0.07 0.05 0.07 0.08 0.04 0.02 0.01 0.01 0.01 0.01 0.02 0.03 0.04 0.07 0.12 0.19 0.28 0.36 0.40 0.42 0.43 0.46 0.52 0.59 0.59 0.53 0.48 0.49 0.51 0.48
0.02 0.02 0.02 0.03 0.08 0.12 0.07 0.05 0.05 0.06 0.14 0.07 0.04 0.04 0.03 0.03 0.10 0.13 0.04 0.00 0.00 0.00 0.01 0.01 0.03 0.05 0.08 0.12 0.16 0.25 0.35 0.43 0.48 0.47 0.45 0.47 0.53 0.61 0.67 0.68 0.62 0.57 0.59 0.53
0.02 0.02 0.02 0.03 0.06 0.06 0.03 0.03 0.04 0.12 0.19 0.03 0.01 0.01 0.01 0.03 0.07 0.06 0.02 0.00 0.00 0.01 0.01 0.02 0.06 0.09 0.11 0.12 0.18 0.29 0.39 0.46 0.45 0.44 0.47 0.54 0.61 0.67 0.71 0.78 0.77 0.74 0.68 0.63
0.02 0.02 0.02 0.03 0.08 0.09 0.01 0.01 0.02 0.04 0.03 0.01 0.01 0.01 0.01 0.01 0.01 0.00 0.00 0.01 0.01 0.01 0.02 0.04 0.09 0.13 0.13 0.14 0.22 0.32 0.38 0.41 0.45 0.48 0.54 0.61 0.68 0.66 0.70 0.92 0.96 0.98 0.93 0.79
0.01 0.01 0.01 0.02 0.04 0.02 0.01 0.00 0.01 0.01 0.01 0.01 0.01 0.01 0.01 0.01 0.01 0.01 0.01 0.01 0.01 0.01 0.03 0.06 0.11 0.15 0.19 0.25 0.32 0.40 0.38 0.42 0.50 0.59 0.65 0.65 0.65 0.73 0.83 0.93 0.96 0.96 0.93 0.88
0.00 0.01 0.01 0.03 0.02 0.01 0.01 0.01 0.01 0.00 0.00 0.00 0.00 0.01 0.01 0.01 0.01 0.01 0.01 0.02 0.02 0.03 0.06 0.10 0.16 0.25 0.33 0.41 0.44 0.44 0.45 0.52 0.63 0.72 0.77 0.78 0.77 0.76 0.80 0.93 0.95 0.93 0.86 0.85
0.00 0.00 0.02 0.04 0.02 0.01 0.01 0.01 0.00 0.00 0.00 0.00 0.00 0.01 0.01 0.02 0.02 0.02 0.02 0.03 0.04 0.05 0.08 0.13 0.22 0.32 0.36 0.43 0.53 0.55 0.63 0.75 0.83 0.80 0.78 0.79 0.84 0.91 0.95 0.94 0.94 0.92 0.89 0.78
0.01 0.02 0.03 0.04 0.04 0.04 0.03 0.01 0.00 0.00 0.00 0.01 0.01 0.01 0.02 0.03 0.03 0.02 0.02 0.03 0.04 0.07 0.11 0.17 0.25 0.33 0.39 0.48 0.56 0.62 0.72 0.84 0.96 0.94 0.85 0.86 0.88 0.91 0.95 0.95 0.86 0.74 0.66 0.56

GEFSCGP_prec_meanprecacc_096.txt.gz
Total_Precipitation_Accumulation
0.00 0.00 0.00 0.00 0.00 0.00 0.01 0.01 0.01 0.03 0.02 0.03 0.04 0.12 0.27 0.35 0.36 0.35 0.32 0.36 0.62 1.05 1.32 1.46 1.62 1.73 1.93 2.16 2.41 2.66 2.91 3.08 2.96 3.00 3.05 2.99 2.69 2.58 2.34 2.10 1.86 1.78 1.75 1.88
0.00 0.01 0.00 0.00 0.00 0.01 0.01 0.01 0.02 0.03 0.03 0.05 0.08 0.16 0.29 0.35 0.41 0.41 0.40 0.50 0.62 0.88 1.23 1.37 1.42 1.54 1.69 1.94 2.38 2.79 2.77 2.71 2.62 2.80 3.08 3.27 3.24 2.88 2.36 2.14 2.01 1.79 1.70 1.80
0.01 0.02 0.01 0.00 0.00 0.01 0.02 0.02 0.04 0.03 0.03 0.06 0.10 0.27 0.39 0.37 0.44 0.46 0.47 0.56 0.67 0.83 0.98 1.10 1.10 1.16 1.32 1.60 1.92 2.06 1.88 1.91 1.88 1.97 2.23 2.41 2.70 2.58 2.29 2.03 1.88 1.78 1.73 1.71
0.01 0.01 0.00 0.01 0.01 0.01 0.02 0.03 0.02 0.02 0.03 0.06 0.11 0.28 0.48 0.66 0.75 0.62 0.59 0.63 0.83 0.94 0.95 0.99 1.02 1.11 1.12 1.09 1.06 1.08 1.15 1.25 1.35 1.49 1.74 2.00 2.27 2.26 2.17 2.11 1.85 1.65 1.52 1.47
0.02 0.01 0.01 0.02 0.03 0.02 0.03 0.03 0.02 0.03 0.03 0.05 0.11 0.25 0.54 0.84 0.92 0.72 0.67 0.73 0.89 0.87 0.81 0.83 0.89 0.93 0.91 0.90 0.92 0.93 1.03 1.18 1.30 1.41 1.56 1.75 2.09 2.08 1.91 1.77 1.62 1.54 1.45 1.38
0.03 0.02 0.02 0.02 0.03 0.02 0.03 0.03 0.04 0.05 0.08 0.16 0.21 0.28 0.57 0.84 0.74 0.71 0.69 0.70 0.73 0.69 0.71 0.76 0.76 0.76 0.76 0.77 0.87 0.93 0.95 1.04 1.11 1.18 1.28 1.33 1.49 1.55 1.45 1.39 1.34 1.27 1.19 1.17
0.10 0.08 0.06 0.03 0.03 0.04 0.04 0.06 0.17 0.32 0.41 0.46 0.35 0.47 0.89 0.82 0.69 0.66 0.68 0.71 0.73 0.69 0.61 0.63 0.68 0.70 0.73 0.74 0.77 0.82 0.86 0.90 0.88 0.85 0.83 0.83 0.93 1.06 1.10 1.10 1.10 1.08 0.97 0.92
0.19 0.20 0.12 0.06 0.05 0.07 0.09 0.14 0.34 0.39 0.34 0.36 0.36 0.71 1.04 0.72 0.66 0.62 0.55 0.53 0.51 0.48 0.45 0.45 0.49 0.54 0.58 0.62 0.64 0.66 0.69 0.72 0.74 0.74 0.76 0.71 0.74 0.84 0.92 1.00 0.97 0.94 0.84 0.74
0.11 0.12 0.07 0.05 0.05 0.08 0.17 0.22 0.22 0.35 0.35 0.38 0.46 0.72 0.80 0.65 0.65 0.59 0.56 0.53 0.49 0.44 0.40 0.38 0.38 0.41 0.40 0.41 0.43 0.47 0.53 0.61 0.66 0.69 0.70 0.63 0.66 0.79 0.85 0.91 0.94 0.97 0.96 0.88
0.05 0.06 0.06 0.04 0.05 0.10 0.12 0.13 0.20 0.31 0.34 0.35 0.37 0.65 0.92 0.92 0.84 0.74 0.78 0.69 0.57 0.45 0.36 0.31 0.27 0.26 0.25 0.28 0.34 0.45 0.58 0.63 0.58 0.55 0.52 0.49 0.57 0.75 0.80 0.76 0.77 0.89 0.94 0.94
0.02 0.03 0.06 0.08 0.08 0.09 0.12 0.15 0.21 0.27 0.26 0.32 0.39 0.55 0.50 0.65 0.76 0.77 0.71 0.64 0.52 0.40 0.33 0.29 0.23 0.19 0.19 0.22 0.28 0.39 0.47 0.53 0.52 0.46 0.42 0.39 0.43 0.50 0.58 0.63 0.65 0.72 0.79 0.85
0.01 0.03 0.06 0.11 0.08 0.06 0.09 0.13 0.22 0.35 0.36 0.40 0.47 0.54 0.33 0.40 0.47 0.47 0.42 0.36 0.31 0.27 0.23 0.20 0.19 0.19 0.20 0.23 0.28 0.33 0.36 0.38 0.41 0.39 0.38 0.39 0.39 0.38 0.37 0.41 0.47 0.51 0.57 0.62
0.02 0.05 0.10 0.24 0.28 0.16 0.15 0.12 0.16 0.21 0.28 0.32 0.42 0.48 0.35 0.37 0.40 0.44 0.45 0.41 0.32 0.25 0.22 0.21 0.20 0.20 0.22 0.27 0.31 0.34 0.39 0.39 0.41 0.39 0.38 0.41 0.40 0.38 0.33 0.32 0.35 0.37 0.38 0.38
0.02 0.04 0.06 0.12 0.12 0.09 0.12 0.14 0.17 0.22 0.31 0.30 0.29 0.37 0.45 0.48 0.48 0.44 0.42 0.40 0.35 0.25 0.18 0.19 0.21 0.22 0.24 0.27 0.28 0.28 0.33 0.39 0.44 0.48 0.55 0.55 0.50 0.45 0.38 0.32 0.30 0.29 0.29 0.29
0.01 0.01 0.02 0.03 0.05 0.08 0.11 0.11 0.15 0.19 0.22 0.34 0.27 0.28 0.37 0.40 0.43 0.41 0.34 0.29 0.25 0.21 0.19 0.19 0.22 0.25 0.25 0.25 0.26 0.26 0.29 0.33 0.37 0.43 0.53 0.58 0.53 0.47 0.42 0.34 0.28 0.27 0.27 0.24
0.02 0.02 0.02 0.04 0.10 0.13 0.14 0.14 0.13 0.12 0.12 0.17 0.20 0.25 0.22 0.22 0.27 0.30 0.28 0.26 0.24 0.23 0.20 0.17 0.17 0.17 0.20 0.21 0.20 0.21 0.23 0.25 0.27 0.31 0.38 0.45 0.47 0.44 0.39 0.32 0.27 0.25 0.23 0.24
0.03 0.02 0.02 0.04 0.09 0.13 0.21 0.18 0.13 0.09 0.07 0.13 0.26 0.30 0.21 0.22 0.26 0.27 0.22 0.19 0.18 0.15 0.12 0.10 0.12 0.12 0.11 0.10 0.12 0.17 0.19 0.21 0.28 0.31 0.33 0.40 0.47 0.46 0.37 0.27 0.26 0.27 0.28 0.30
0.04 0.04 0.04 0.08 0.11 0.22 0.18 0.07 0.05 0.06 0.05 0.05 0.14 0.16 0.15 0.16 0.15 0.12 0.10 0.09 0.08 0.06 0.05 0.04 0.04 0.05 0.05 0.05 0.09 0.14 0.18 0.25 0.31 0.35 0.39 0.44 0.47 0.47 0.43 0.37 0.36 0.39 0.42 0.42
0.04 0.04 0.03 0.06 0.10 0.13 0.07 0.05 0.06 0.08 0.08 0.03 0.06 0.08 0.07 0.05 0.07 0.08 0.04 0.02 0.01 0.01 0.01 0.01 0.02 0.03 0.04 0.07 0.12 0.19 0.28 0.36 0.40 0.42 0.43 0.46 0.52 0.59 0.59 0.54 0.49 0.49 0.51 0.48
0.04 0.03 0.03 0.04 0.09 0.13 0.07 0.05 0.05 0.06 0.15 0.07 0.04 0.04 0.03 0.03 0.10 0.13 0.04 0.00 0.00 0.00 0.01 0.01 0.03 0.05 0.08 0.12 0.16 0.25 0.35 0.43 0.48 0.47 0.45 0.47 0.53 0.61 0.68 0.68 0.62 0.57 0.59 0.53
0.04 0.04 0.04 0.05 0.07 0.06 0.03 0.03 0.04 0.12 0.19 0.03 0.01 0.01 0.01 0.03 0.07 0.06 0.02 0.00 0.00 0.01 0.01 0.02 0.06 0.09 0.11 0.12 0.18 0.29 0.39 0.46 0.45 0.44 0.47 0.54 0.61 0.67 0.72 0.78 0.77 0.74 0.68 0.63
0.03 0.03 0.03 0.05 0.09 0.10 0.02 0.01 0.02 0.04 0.03 0.01 0.01 0.01 0.01 0.01 0.01 0.00 0.00 0.01 0.01 0.01 0.02 0.04 0.09 0.13 0.13 0.14 0.22 0.32 0.38 0.41 0.45 0.48 0.54 0.61 0.69 0.66 0.70 0.92 0.96 0.98 0.93 0.79
0.01 0.02 0.02 0.03 0.04 0.02 0.01 0.00 0.01 0.01 0.01 0.01 0.01 0.01 0.01 0.01 0.01 0.01 0.01 0.01 0.01 0.01 0.03 0.06 0.11 0.15 0.19 0.25 0.32 0.40 0.38 0.42 0.50 0.59 0.65 0.65 0.66 0.73 0.83 0.93 0.96 0.96 0.93 0.88
0.00 0.01 0.01 0.03 0.02 0.01 0.01 0.01 0.01 0.00 0.00 0.00 0.00 0.01 0.01 0.01 0.01 0.01 0.01 0.02 0.02 0.03 0.06 0.10 0.16 0.25 0.33 0.41 0.44 0.44 0.45 0.52 0.63 0.72 0.77 0.78 0.78 0.76 0.80 0.93 0.95 0.93 0.87 0.85
0.00 0.00 0.02 0.04 0.02 0.01 0.01 0.01 0.00 0.00 0.00 0.00 0.00 0.01 0.01 0.02 0.02 0.02 0.02 0.03 0.04 0.05 0.08 0.13 0.22 0.32 0.36 0.43 0.53 0.55 0.63 0.75 0.83 0.80 0.78 0.80 0.84 0.91 0.95 0.94 0.94 0.92 0.90 0.79
0.01 0.02 0.03 0.04 0.04 0.04 0.03 0.01 0.00 0.00 0.00 0.01 0.01 0.01 0.02 0.03 0.03 0.02 0.03 0.03 0.04 0.07 0.11 0.17 0.25 0.33 0.39 0.48 0.56 0.62 0.72 0.84 0.96 0.94 0.85 0.86 0.88 0.91 0.96 0.96 0.86 0.74 0.67 0.56

GEFSCGP_prec_meanprecacc_102.txt.gz
Total_Precipitation_Accumulation
0.00 0.00 0.00 0.00 0.00 0.00 0.01 0.01 0.02 0.03 0.03 0.03 0.06 0.14 0.29 0.38 0.40 0.40 0.36 0.40 0.65 1.07 1.34 1.49 1.67 1.79 2.01 2.23 2.48 2.71 2.95 3.13 3.02 3.08 3.12 3.05 2.74 2.62 2.39 2.15 1.91 1.83 1.80 1.95
0.00 0.01 0.00 0.00 0.00 0.01 0.01 0.01 0.02 0.04 0.04 0.06 0.09 0.17 0.31 0.38 0.44 0.44 0.44 0.55 0.67 0.90 1.25 1.40 1.47 1.62 1.81 2.08 2.51 2.88 2.82 2.75 2.66 2.85 3.11 3.30 3.27 2.90 2.39 2.16 2.04 1.82 1.75 1.86
0.01 0.02 0.01 0.00 0.00 0.01 0.02 0.02 0.04 0.04 0.04 0.07 0.11 0.30 0.41 0.39 0.46 0.49 0.50 0.59 0.70 0.85 1.00 1.13 1.17 1.26 1.42 1.70 2.02 2.16 1.99 1.97 1.92 2.00 2.25 2.43 2.72 2.60 2.30 2.04 1.90 1.80 1.76 1.74
0.01 0.01 0.01 0.01 0.01 0.01 0.02 0.03 0.03 0.02 0.04 0.08 0.13 0.32 0.51 0.69 0.77 0.66 0.63 0.66 0.86 0.97 0.97 1.02 1.07 1.15 1.17 1.12 1.11 1.15 1.24 1.30 1.37 1.50 1.75 2.02 2.28 2.27 2.19 2.12 1.87 1.67 1.53 1.49
0.02 0.01 0.01 0.02 0.03 0.02 0.03 0.03 0.03 0.03 0.04 0.07 0.12 0.27 0.57 0.86 0.96 0.76 0.71 0.76 0.91 0.89 0.83 0.85 0.91 0.95 0.94 0.92 0.94 0.95 1.05 1.19 1.30 1.42 1.57 1.76 2.10 2.10 1.93 1.79 1.64 1.55 1.47 1.39
0.03 0.02 0.02 0.02 0.03 0.02 0.03 0.04 0.05 0.06 0.08 0.20 0.22 0.30 0.59 0.85 0.77 0.74 0.71 0.72 0.75 0.70 0.73 0.77 0.77 0.78 0.77 0.78 0.87 0.93 0.95 1.04 1.12 1.18 1.28 1.34 1.50 1.56 1.46 1.40 1.35 1.28 1.20 1.18
0.10 0.08 0.06 0.04 0.03 0.04 0.05 0.07 0.20 0.35 0.44 0.50 0.36 0.48 0.90 0.82 0.69 0.67 0.68 0.71 0.74 0.70 0.63 0.64 0.70 0.71 0.74 0.74 0.77 0.82 0.86 0.91 0.88 0.85 0.83 0.84 0.94 1.07 1.10 1.10 1.11 1.09 0.98 0.92
0.19 0.20 0.12 0.06 0.05 0.07 0.09 0.15 0.36 0.42 0.36 0.38 0.36 0.71 1.04 0.72 0.66 0.62 0.55 0.53 0.52 0.49 0.45 0.45 0.49 0.54 0.59 0.62 0.65 0.66 0.69 0.73 0.74 0.74 0.76 0.71 0.74 0.84 0.92 1.01 0.97 0.94 0.84 0.74
0.11 0.12 0.07 0.05 0.05 0.08 0.17 0.22 0.22 0.35 0.35 0.38 0.46 0.72 0.80 0.65 0.65 0.59 0.56 0.53 0.49 0.44 0.40 0.38 0.38 0.41 0.41 0.41 0.43 0.47 0.53 0.62 0.66 0.69 0.70 0.63 0.67 0.79 0.85 0.91 0.94 0.98 0.97 0.88
0.05 0.06 0.06 0.04 0.05 0.10 0.12 0.14 0.20 0.31 0.34 0.35 0.37 0.65 0.92 0.92 0.84 0.74 0.78 0.69 0.57 0.45 0.36 0.32 0.27 0.26 0.25 0.28 0.34 0.45 0.58 0.63 0.58 0.55 0.52 0.49 0.57 0.75 0.80 0.76 0.77 0.89 0.94 0.94
0.02 0.03 0.06 0.08 0.08 0.09 0.12 0.15 0.21 0.27 0.26 0.32 0.39 0.55 0.50 0.65 0.76 0.77 0.71 0.64 0.52 0.40 0.33 0.29 0.23 0.19 0.19 0.22 0.28 0.39 0.47 0.53 0.52 0.46 0.42 0.39 0.43 0.50 0.58 0.63 0.65 0.72 0.79 0.85
0.01 0.03 0.06 0.11 0.08 0.07 0.09 0.13 0.22 0.35 0.36 0.40 0.47 0.54 0.33 0.40 0.47 0.47 0.42 0.36 0.31 0.27 0.23 0.20 0.19 0.19 0.20 0.23 0.28 0.33 0.36 0.38 0.41 0.40 0.38 0.39 0.39 0.38 0.37 0.41 0.47 0.51 0.58 0.62
0.02 0.05 0.11 0.24 0.28 0.16 0.15 0.12 0.16 0.21 0.28 0.32 0.42 0.48 0.35 0.37 0.41 0.44 0.45 0.41 0.32 0.25 0.22 0.21 0.20 0.20 0.22 0.27 0.31 0.34 0.39 0.39 0.41 0.39 0.38 0.41 0.40 0.38 0.33 0.32 0.35 0.38 0.38 0.38
0.02 0.04 0.06 0.12 0.13 0.09 0.12 0.14 0.17 0.23 0.31 0.30 0.29 0.37 0.45 0.48 0.48 0.44 0.42 0.40 0.35 0.25 0.18 0.19 0.21 0.22 0.24 0.27 0.28 0.28 0.33 0.39 0.44 0.48 0.55 0.55 0.50 0.46 0.38 0.32 0.30 0.29 0.29 0.30
0.01 0.01 0.02 0.03 0.05 0.08 0.11 0.11 0.15 0.19 0.22 0.34 0.27 0.28 0.37 0.40 0.43 0.41 0.34 0.29 0.25 0.21 0.19 0.19 0.22 0.25 0.25 0.25 0.26 0.26 0.29 0.33 0.37 0.43 0.53 0.58 0.53 0.47 0.42 0.35 0.28 0.27 0.27 0.25
0.02 0.02 0.02 0.04 0.10 0.13 0.14 0.14 0.13 0.12 0.12 0.17 0.20 0.25 0.22 0.22 0.27 0.30 0.28 0.26 0.24 0.23 0.20 0.17 0.17 0.17 0.20 0.21 0.20 0.21 0.23 0.25 0.27 0.32 0.38 0.45 0.47 0.44 0.39 0.32 0.28 0.25 0.24 0.24
0.03 0.02 0.03 0.04 0.09 0.13 0.21 0.18 0.13 0.09 0.07 0.13 0.26 0.30 0.21 0.22 0.26 0.27 0.22 0.19 0.18 0.15 0.12 0.10 0.12 0.12 0.11 0.10 0.12 0.17 0.19 0.21 0.28 0.31 0.34 0.40 0.47 0.46 0.37 0.27 0.26 0.27 0.28 0.31
0.05 0.04 0.05 0.08 0.11 0.22 0.18 0.07 0.05 0.07 0.05 0.05 0.14 0.16 0.15 0.16 0.15 0.12 0.10 0.09 0.08 0.06 0.05 0.04 0.04 0.05 0.05 0.05 0.09 0.14 0.18 0.26 0.31 0.35 0.39 0.44 0.47 0.48 0.44 0.38 0.36 0.40 0.42 0.43
0.05 0.05 0.04 0.06 0.10 0.13 0.07 0.05 0.06 0.08 0.08 0.03 0.06 0.08 0.07 0.05 0.07 0.08 0.04 0.02 0.01 0.01 0.01 0.01 0.02 0.03 0.04 0.07 0.12 0.19 0.28 0.36 0.40 0.42 0.43 0.46 0.52 0.59 0.59 0.54 0.49 0.49 0.52 0.48
0.05 0.04 0.04 0.05 0.10 0.13 0.07 0.05 0.05 0.06 0.15 0.07 0.04 0.04 0.03 0.03 0.10 0.13 0.04 0.00 0.00 0.00 0.01 0.01 0.03 0.05 0.08 0.12 0.16 0.25 0.35 0.43 0.48 0.47 0.45 0.47 0.53 0.61 0.68 0.68 0.62 0.58 0.60 0.53
0.05 0.05 0.05 0.06 0.08 0.06 0.03 0.04 0.04 0.12 0.19 0.03 0.01 0.01 0.01 0.03 0.07 0.06 0.02 0.00 0.00 0.01 0.01 0.02 0.06 0.09 0.11 0.13 0.18 0.29 0.39 0.46 0.45 0.44 0.47 0.54 0.61 0.68 0.72 0.78 0.78 0.75 0.69 0.64
0.03 0.04 0.05 0.06 0.09 0.10 0.02 0.01 0.02 0.04 0.03 0.01 0.01 0.01 0.01 0.01 0.01 0.00 0.00 0.01 0.01 0.01 0.02 0.04 0.09 0.13 0.13 0.14 0.22 0.32 0.38 0.41 0.45 0.48 0.54 0.61 0.69 0.66 0.71 0.92 0.96 0.99 0.94 0.80
0.02 0.03 0.03 0.03 0.05 0.02 0.01 0.00 0.01 0.01 0.01 0.01 0.01 0.01 0.01 0.01 0.01 0.01 0.01 0.01 0.01 0.01 0.03 0.06 0.11 0.15 0.19 0.25 0.32 0.40 0.38 0.42 0.50 0.59 0.65 0.65 0.66 0.73 0.83 0.93 0.97 0.97 0.94 0.89
0.00 0.01 0.02 0.03 0.02 0.01 0.01 0.01 0.01 0.00 0.00 0.00 0.00 0.01 0.01 0.01 0.01 0.01 0.01 0.02 0.02 0.03 0.06 0.10 0.16 0.25 0.33 0.41 0.44 0.44 0.45 0.52 0.63 0.72 0.77 0.79 0.78 0.76 0.81 0.94 0.96 0.94 0.88 0.86
0.00 0.00 0.02 0.04 0.02 0.01 0.01 0.01 0.00 0.00 0.00 0.00 0.00 0.01 0.01 0.02 0.02 0.02 0.02 0.03 0.04 0.05 0.08 0.13 0.22 0.32 0.36 0.43 0.53 0.55 0.63 0.75 0.83 0.81 0.78 0.80 0.84 0.92 0.95 0.94 0.95 0.93 0.91 0.80
0.01 0.02 0.03 0.04 0.04 0.04 0.03 0.01 0.00 0.00 0.00 0.01 0.01 0.01 0.02 0.03 0.03 0.02 0.03 0.03 0.04 0.07 0.11 0.17 0.25 0.33 0.39 0.48 0.57 0.62 0.72 0.84 0.96 0.94 0.85 0.86 0.88 0.91 0.96 0.96 0.87 0.75 0.67 0.57